Location: Austin
(30.3000°N, 97.7500°W)
Time: 10:05:02
(UTC-05:00)

Cosmos 1975 - Pass Details

Date: 03 April 2024
Orbit: 514 x 537 km, 82.5° (Epoch: 21 April)

Event Time Altitude Azimuth Distance (km) Brightness Sun altitude
Rises 06:25:01 0° 3° (N) 2,631 6.5 -11.9°
Reaches altitude 10° 06:27:14 10° 11° (N) 1,742 5.7 -11.4°
Maximum altitude 06:30:51 40° 82° (E) 771 4.3 -10.7°
Drops below altitude 10° 06:34:27 10° 152° (SSE) 1,738 5.6 -9.9°
Sets 06:36:40 0° 160° (SSE) 2,625 6.4 -9.4°
